Location: Boissi�res
(45.2500°N, 2.3667°E)
Time: 03:58:16
(UTC+00:00)

COSMOS 2428 - Visible Passes

Search period start: 15 June 2021 00:00
Search period end: 25 June 2021 00:00
Orbit: 844 x 859 km, 70.9° (Epoch: 14 June)

Date Brightness Start Highest point End Pass type
(mag) Time Alt. Az. Time Alt. Az. Time Alt. Az.
15 Jun 4.3 00:08:02 11° WSW 00:12:42 30° NW 00:17:44 10° N visible
15 Jun 3.0 22:13:36 30° SSE 22:16:05 50° ESE 22:21:37 10° NE visible
15 Jun 4.3 23:55:36 10° WSW 00:00:36 30° NW 00:05:39 10° N visible
16 Jun 3.0 22:01:02 26° S 22:03:59 50° ESE 22:09:31 10° NE visible
16 Jun 4.3 23:43:30 10° WSW 23:48:31 30° NW 23:53:32 10° N visible
17 Jun 3.0 21:48:21 22° S 21:51:52 50° ESE 21:57:25 10° NE visible
17 Jun 4.4 23:31:24 10° WSW 23:36:24 30° NW 23:41:26 10° N visible
18 Jun 3.0 21:35:31 17° S 21:39:46 50° ESE 21:45:19 10° NE visible
18 Jun 4.4 23:19:18 10° WSW 23:24:18 30° NW 23:29:20 10° N visible
19 Jun 3.0 21:22:29 12° S 21:27:39 50° ESE 21:33:12 10° NE visible
19 Jun 4.4 23:07:11 10° WSW 23:12:11 30° NW 23:17:13 10° N visible
20 Jun 2.9 21:10:03 10° S 21:15:34 50° ESE 21:21:06 10° NE visible
20 Jun 4.5 22:55:06 10° WSW 23:00:05 30° NW 23:05:07 10° N visible
21 Jun 2.9 20:57:56 10° S 21:03:27 50° ESE 21:09:00 10° NE visible
21 Jun 4.5 22:43:00 10° WSW 22:47:59 30° NW 22:53:01 10° N visible
22 Jun 2.9 20:45:50 10° S 20:51:21 51° ESE 20:56:54 10° NE visible
22 Jun 4.6 22:30:54 10° WSW 22:35:53 30° NW 22:40:53 10° N visible
23 Jun 2.9 20:33:44 10° S 20:39:14 51° ESE 20:44:47 10° NE visible
23 Jun 4.6 22:18:48 10° WSW 22:23:46 30° NW 22:28:47 10° N visible
24 Jun 2.9 20:21:37 10° S 20:27:08 51° ESE 20:32:41 10° NE visible
24 Jun 4.7 22:06:41 10° WSW 22:11:40 30° NW 22:16:41 10° N visible
